Back to catalog

SL-8 R/B

AliveLEO
NORAD 5175·ROCKET BODY·🇷🇺 Russia

Launched Apr 23, 1971 from Plesetsk Cosmodrome

Loading…

Next Passes (next 24 hours)

TLE

FreshSource: Space-Track

Epoch: Sep 14, 2026, 01:44 UTC

1 05175U 71035B   26257.07238401  .00000082  00000-0  34638-4 0  9999
2 05175  74.0465 112.4964 0029936 205.9915 153.9738 14.39553105900059

Track SL-8 R/B in real time with AllMySat

Download on the App Store